Time (hhmmss), Depth12, Depth35, dec_lat, dec_lon, EDO_knt, SSCND, SSTMP, GPS_COG, GPS_SOG, Gyro, Air_Temp, IMET_BPR, HRH, Salinity, Wnd_Dir, Wnd_Spd, 
00:00:44, 105.5, 106.7, 43.389756, 14.864393, 7.00 , +45.9243, +13.9603, 305.9, 7.09, 304.3, 8.255, 1021.89, 32.628, 38.7940, 20.3, 3.9780, 
00:01:44, 105.6, 106.6, 43.390896, 14.862218, 6.94 , +45.9256, +13.9620, 305.7, 7.02, 303.9, 8.231, 1021.74, 32.873, 38.7948, 32.5, 4.5681, 
00:02:44, 105.4, 106.4, 43.392031, 14.860035, 7.34 , +45.9163, +13.9557, 305.3, 7.10, 303.8, 8.239, 1021.89, 34.609, 38.7910, 31.2, 4.4474, 
00:03:44, 104.8, 106.2, 43.393178, 14.857841, 7.14 , +45.9034, +13.9425, 306.1, 7.08, 304.1, 8.242, 1021.85, 35.337, 38.7921, 31.7, 4.7838, 
00:04:44, 104.6, 106.0, 43.394321, 14.855708, 6.60 , +45.8568, +13.9154, 308.4, 6.91, 305.1, 8.225, 1021.88, 35.821, 38.7869, 26.3, 4.2885, 
00:05:44, 104.6, 106.0, 43.395453, 14.853585, 6.89 , +45.8432, +13.8978, 305.8, 6.96, 304.0, 8.222, 1021.94, 34.505, 38.7798, 26.8, 3.9712, 
00:06:44, 104.9, 106.0, 43.396579, 14.851416, 7.24 , +45.8450, +13.8950, 305.0, 6.98, 303.8, 8.200, 1021.86, 34.755, 38.7846, 46.5, 3.6650, 
00:07:44, 104.4, 105.9, 43.397693, 14.849256, 7.65 , +45.8351, +13.8917, 306.0, 6.95, 305.4, 8.228, 1021.84, 34.047, 38.7817, 41.0, 3.8923, 
00:08:44, 104.7, 106.2, 43.398850, 14.847115, 7.45 , +45.8328, +13.8876, 307.0, 6.97, 305.0, 8.233, 1021.92, 35.529, 38.7807, 44.6, 3.1987, 
00:09:44, 104.8, 106.0, 43.399984, 14.844946, 6.38 , +45.8097, +13.8633, 305.1, 6.98, 304.0, 8.347, 1021.93, 37.968, 38.7834, 34.3, 3.2629, 
00:10:44, 104.6, 105.8, 43.401095, 14.842806, 6.91 , +45.7893, +13.8459, 306.4, 6.85, 305.4, 8.257, 1021.94, 35.465, 38.7787, 32.9, 4.7756, 
00:11:44, 103.8, 105.4, 43.402230, 14.840698, 6.50 , +45.7838, +13.8419, 305.3, 6.90, 304.0, 8.218, 1021.83, 35.428, 38.7732, 9.5, 2.9830, 
00:12:44, 104.0, 105.1, 43.403341, 14.838541, 7.47 , +45.7910, +13.8517, 305.0, 6.91, 303.8, 8.273, 1021.85, 36.453, 38.7772, 32.6, 2.9010, 
00:13:44, 103.3, 104.8, 43.404438, 14.836386, 6.88 , +45.7898, +13.8488, 305.0, 6.79, 304.1, 8.248, 1021.90, 35.857, 38.7791, 10.5, 2.9784, 
00:14:44, 102.8, 103.9, 43.405541, 14.834238, 7.16 , +45.7864, +13.8465, 306.3, 6.92, 305.2, 8.218, 1021.85, 34.746, 38.7782, 26.2, 3.0961, 
00:15:44, 102.4, 103.9, 43.406691, 14.832110, 7.29 , +45.7865, +13.8466, 307.1, 6.95, 305.1, 8.260, 1021.85, 35.413, 38.7795, 38.4, 2.9098, 
00:16:44, 102.0, 103.5, 43.407833, 14.829990, 6.93 , +45.7876, +13.8420, 305.6, 6.95, 304.8, 8.248, 1021.92, 35.051, 38.7839, 25.3, 2.0761, 
00:17:44, 101.0, 102.6, 43.409075, 14.827980, 6.96 , +45.7961, +13.8458, 317.8, 6.98, 319.8, 8.284, 1021.77, 35.483, 38.7834, 41.1, 3.2125, 
00:18:44, 101.5, 102.6, 43.410793, 14.826823, 7.22 , +45.7887, +13.8440, 350.3, 7.05, 351.4, 8.306, 1021.85, 35.087, 38.7829, 61.5, 4.1126, 
00:19:44, 101.6, 102.7, 43.412750, 14.826808, 7.23 , +45.7932, +13.8452, 008.2, 7.18, 008.4, 8.332, 1021.70, 35.450, 38.7860, 26.8, 2.3740, 
00:20:44, 101.7, 102.8, 43.414628, 14.827728, 6.46 , +45.7785, +13.8357, 030.7, 7.14, 028.3, 8.337, 1021.81, 38.568, 38.7817, 31.2, 1.6473, 
00:21:44, 101.7, 103.0, 43.416358, 14.829168, 6.95 , +45.7793, +13.8322, 031.8, 7.27, 029.9, 8.391, 1021.86, 39.318, 38.7860, 23.9, 2.7243, 
00:22:44, 101.7, 103.0, 43.418076, 14.830665, 6.83 , +45.7858, +13.8352, 032.0, 7.23, 030.0, 8.337, 1021.91, 36.973, 38.7891, 61.9, 1.6371, 
00:23:44, 101.6, 103.0, 43.419791, 14.832165, 6.76 , +45.7860, +13.8353, 032.9, 7.39, 030.2, 8.239, 1021.85, 35.145, 38.7892, 82.6, 1.8449, 
00:24:44, 101.5, 102.7, 43.421510, 14.833698, 6.75 , +45.7899, +13.8366, 034.4, 7.34, 030.5, 8.290, 1021.85, 37.094, 38.7916, 56.2, 1.6092, 
00:25:44, 101.6, 102.9, 43.423218, 14.835226, 6.32 , +45.7745, +13.8206, 033.4, 7.32, 030.4, 8.316, 1021.82, 37.003, 38.7932, 60.0, 1.0197, 
00:26:44, 101.6, 103.1, 43.424930, 14.836783, 7.01 , +45.7620, +13.8141, 035.0, 7.34, 030.2, 8.263, 1021.89, 36.076, 38.7923, 105.6, 1.5819, 
00:27:44, 101.1, 102.2, 43.426656, 14.838370, 6.83 , +45.7430, +13.7912, 034.2, 7.47, 030.4, 8.355, 1021.80, 38.598, 38.7930, 135.2, 1.1887, 
00:28:44, 101.6, 102.8, 43.428376, 14.839866, 7.08 , +45.6850, +13.7292, 031.6, 7.13, 029.6, 8.349, 1021.87, 37.549, 38.8007, 351.2, 2.0863, 
00:29:44, 100.6, 102.2, 43.430055, 14.841250, 6.66 , +45.7020, +13.7434, 034.5, 6.84, 033.2, 8.287, 1021.91, 35.602, 38.8005, 46.1, 2.1812, 
00:30:44, 100.6, 102.1, 43.431616, 14.842774, 7.11 , +45.7105, +13.7553, 036.3, 6.77, 035.0, 8.299, 1021.80, 37.091, 38.7985, 72.2, 1.8129, 
00:31:44, 100.9, 101.9, 43.433148, 14.844278, 6.78 , +45.7269, +13.7692, 035.6, 6.70, 034.4, 8.260, 1021.76, 36.119, 38.8000, 69.4, 2.2133, 
00:32:44, 100.7, 101.9, 43.434688, 14.845776, 6.77 , +45.7365, +13.7796, 035.3, 6.83, 034.3, 8.261, 1021.86, 36.277, 38.7986, 83.0, 2.7375, 
00:33:44, 100.7, 102.1, 43.436235, 14.847279, 6.94 , +45.7594, +13.7961, 035.5, 6.77, 033.7, 8.221, 1021.76, 34.996, 38.8005, 54.4, 3.0394, 
00:34:44, 100.8, 102.3, 43.437778, 14.848778, 6.39 , +45.7659, +13.8053, 034.5, 6.81, 034.2, 8.222, 1021.83, 35.069, 38.8005, 54.5, 2.4305, 
00:35:44, 101.5, 102.6, 43.439331, 14.850303, 6.93 , +45.7625, +13.8038, 035.3, 6.86, 034.1, 8.221, 1021.88, 35.413, 38.7988, 60.4, 1.5673, 
00:36:44, 101.5, 102.7, 43.440906, 14.851855, 6.96 , +45.7614, +13.8041, 035.0, 6.93, 033.9, 8.204, 1021.88, 35.465, 38.7974, 13.5, 1.2812, 
00:37:44, 101.5, 102.8, 43.442478, 14.853401, 6.85 , +45.7544, +13.8029, 036.4, 7.03, 034.1, 8.189, 1021.89, 35.273, 38.7920, 331.9, 1.0048, 
00:38:44, 101.5, 102.9, 43.444046, 14.854988, 7.01 , +45.7531, +13.8030, 036.5, 6.99, 034.2, 8.194, 1021.87, 34.212, 38.7907, 26.7, 0.6780, 
00:39:44, 101.8, 102.9, 43.445630, 14.856560, 6.50 , +45.7548, +13.8030, 034.4, 7.04, 034.1, 8.227, 1021.85, 34.493, 38.7923, 82.0, 1.4455, 
00:40:44, 101.6, 102.7, 43.447198, 14.858131, 7.01 , +45.7617, +13.8050, 036.9, 6.94, 035.1, 8.177, 1021.93, 34.056, 38.7968, 110.8, 1.4585, 
00:41:44, 100.8, 102.4, 43.448763, 14.859748, 6.74 , +45.7505, +13.7993, 037.2, 7.10, 034.7, 8.182, 1021.92, 34.041, 38.7919, 131.2, 0.5392, 
00:42:44, 101.8, 102.9, 43.450356, 14.861341, 6.85 , +45.7555, +13.8052, 036.1, 7.03, 034.2, 8.170, 1021.88, 33.958, 38.7907, 169.9, 0.8260, 
00:43:44, 101.7, 103.2, 43.451945, 14.862906, 6.78 , +45.7678, +13.8130, 036.5, 6.97, 034.1, 8.198, 1021.76, 34.523, 38.7945, 161.1, 1.3729, 
00:44:44, 101.9, 103.2, 43.453525, 14.864508, 6.89 , +45.7617, +13.8092, 035.6, 7.06, 034.3, 8.239, 1021.81, 35.453, 38.7926, 165.6, 1.4583, 
00:45:44, 102.1, 103.7, 43.455106, 14.866095, 7.17 , +45.7669, +13.8129, 036.3, 7.05, 034.1, 8.180, 1021.83, 34.184, 38.7938, 125.6, 2.0126, 
00:46:44, 101.6, 103.2, 43.456670, 14.867678, 6.79 , +45.7733, +13.8139, 036.6, 7.02, 035.3, 8.206, 1021.91, 35.072, 38.7988, 128.9, 2.0282, 
00:47:44, 101.7, 103.3, 43.458221, 14.869304, 7.15 , +45.8061, +13.8422, 037.5, 7.02, 034.3, 8.284, 1021.86, 37.191, 38.8013, 82.7, 0.8545, 
00:48:44, 101.8, 103.3, 43.459789, 14.870911, 6.68 , +45.8079, +13.8443, 035.3, 7.00, 034.1, 8.325, 1021.86, 37.015, 38.8009, 356.9, 1.2966, 
00:49:44, 102.2, 103.5, 43.461336, 14.872513, 6.74 , +45.8025, +13.8411, 037.3, 6.97, 034.2, 8.352, 1021.81, 38.134, 38.7990, 8.4, 1.3548, 
00:50:44, 102.7, 103.7, 43.462886, 14.874116, 6.93 , +45.7980, +13.8389, 036.6, 6.98, 034.1, 8.278, 1021.81, 35.029, 38.7970, 35.7, 1.8031, 
00:51:44, 102.8, 103.8, 43.464445, 14.875706, 6.99 , +45.7940, +13.8350, 036.4, 6.95, 034.4, 8.248, 1021.76, 34.035, 38.7971, 85.4, 1.8077, 
00:52:44, 103.1, 104.2, 43.465983, 14.877288, 6.88 , +45.7951, +13.8352, 038.2, 6.98, 034.2, 8.264, 1021.83, 34.212, 38.7980, 96.9, 2.0219, 
00:53:44, 103.0, 104.4, 43.467521, 14.878886, 7.18 , +45.7956, +13.8315, 036.4, 6.92, 034.1, 8.291, 1021.80, 33.907, 38.8022, 85.9, 2.0000, 
00:54:44, 103.5, 104.8, 43.469026, 14.880518, 6.67 , +45.7897, +13.8308, 037.4, 6.86, 034.4, 8.231, 1021.77, 32.836, 38.7973, 39.7, 1.6269, 
00:55:44, 103.5, 105.0, 43.470556, 14.882111, 7.00 , +45.7946, +13.8254, 037.5, 6.82, 034.0, 8.194, 1021.81, 31.944, 38.8074, 26.1, 0.8850, 
00:56:44, 106.6, 108.1, 43.472103, 14.883703, 7.42 , +45.8034, +13.8348, 036.6, 6.94, 034.2, 8.224, 1021.91, 32.806, 38.8063, 267.5, 0.3011, 
00:57:44, 107.5, 108.5, 43.473648, 14.885306, 7.04 , +45.8039, +13.8372, 038.2, 6.87, 034.3, 8.243, 1021.91, 34.111, 38.8043, 125.5, 0.2019, 
00:58:44, 107.3, 108.8, 43.475191, 14.886866, 6.63 , +45.8037, +13.8308, 037.1, 6.98, 033.2, 8.249, 1021.90, 33.338, 38.8106, 43.5, 1.0723, 
00:59:44, 107.5, 109.0, 43.476753, 14.888423, 7.45 , +45.7883, +13.8198, 037.1, 6.93, 033.1, 8.215, 1021.96, 32.634, 38.8071, 42.4, 1.2172, 
01:00:44, 108.4, 109.5, 43.478311, 14.889984, 6.62 , +45.7891, +13.8176, 036.8, 6.89, 033.8, 8.227, 1021.93, 33.684, 38.8101, 3.9, 1.3948, 
01:01:44, 109.1, 110.1, 43.479843, 14.891541, 6.66 , +45.7818, +13.8129, 034.7, 6.80, 033.1, 8.237, 1021.90, 33.913, 38.8079, 22.6, 1.4329, 
01:02:44, 108.6, 110.0, 43.481396, 14.893081, 6.18 , +45.7814, +13.8078, 036.1, 6.92, 033.1, 8.246, 1021.97, 33.332, 38.8127, 20.0, 1.3810, 
01:03:44, 108.5, 110.0, 43.482963, 14.894628, 6.21 , +45.7726, +13.8029, 035.0, 7.01, 033.1, 8.219, 1021.94, 33.558, 38.8093, 11.8, 0.7502, 
01:04:44, 108.4, 109.8, 43.484513, 14.896171, 6.89 , +45.7593, +13.7923, 035.5, 6.77, 034.2, 8.236, 1021.86, 34.310, 38.8074, 62.2, 0.3537, 
01:05:44, 108.5, 109.9, 43.486041, 14.897729, 6.94 , +45.7634, +13.7906, 035.9, 6.94, 034.2, 8.236, 1021.91, 35.041, 38.8131, 76.5, 1.2679, 
01:06:44, 108.1, 109.3, 43.487575, 14.899303, 7.14 , +45.7575, +13.7913, 036.8, 6.89, 033.9, 8.204, 1021.88, 35.623, 38.8067, 104.2, 2.2359, 
01:07:44, 107.2, 108.8, 43.489123, 14.900843, 7.05 , +45.7530, +13.7821, 035.9, 6.87, 034.0, 8.206, 1021.99, 34.874, 38.8118, 79.6, 2.5611, 
01:08:44, 106.6, 108.2, 43.490675, 14.902359, 6.72 , +45.7698, +13.7951, 034.6, 6.86, 034.1, 8.159, 1021.97, 33.613, 38.8146, 93.8, 2.6935, 
01:09:44, 106.1, 107.6, 43.492243, 14.903891, 7.03 , +45.7774, +13.7991, 036.3, 6.96, 033.8, 8.237, 1021.84, 35.355, 38.8178, 94.5, 2.6645, 
01:10:44, 105.4, 106.7, 43.493826, 14.905433, 6.64 , +45.7793, +13.8026, 034.2, 6.94, 033.7, 8.165, 1021.98, 34.023, 38.8160, 119.5, 2.0266, 
01:11:44, 104.7, 106.3, 43.495408, 14.906965, 7.18 , +45.7719, +13.7997, 036.5, 7.03, 034.0, 8.191, 1022.04, 35.203, 38.8119, 137.7, 2.3007, 
01:12:44, 104.6, 105.8, 43.496986, 14.908501, 7.35 , +45.7894, +13.8104, 036.0, 7.04, 034.2, 8.219, 1021.96, 35.182, 38.8177, 140.9, 2.3396, 
01:13:44, 103.6, 105.1, 43.498573, 14.910043, 6.07 , +45.7845, +13.8092, 035.8, 7.01, 033.9, 8.165, 1022.03, 34.133, 38.8143, 141.2, 2.5497, 
01:14:44, 102.7, 104.3, 43.500163, 14.911571, 6.76 , +45.7916, +13.8097, 035.3, 6.98, 033.7, 8.194, 1021.93, 36.730, 38.8205, 138.6, 2.6590, 
01:15:44, 101.6, 102.7, 43.501760, 14.913108, 6.60 , +45.7942, +13.8144, 034.9, 7.03, 034.1, 8.161, 1021.99, 35.419, 38.8182, 147.8, 2.3466, 
01:16:44, 100.9, 102.4, 43.503370, 14.914649, 7.31 , +45.7747, +13.7998, 036.8, 7.07, 034.0, 8.126, 1022.07, 42.289, 38.8145, 158.0, 3.2963, 
01:17:44, 100.9, 102.2, 43.504973, 14.916185, 7.03 , +45.7835, +13.8104, 035.4, 7.03, 035.0, 8.049, 1021.90, 44.395, 38.8121, 157.0, 3.6224, 
01:18:44, 100.9, 102.6, 43.506548, 14.917761, 7.37 , +45.7757, +13.8094, 036.1, 7.00, 034.7, 8.006, 1022.06, 45.812, 38.8057, 161.5, 4.3101, 
01:19:44, 100.9, 102.0, 43.508131, 14.919325, 6.98 , +45.7696, +13.8033, 035.3, 7.05, 034.5, 7.982, 1022.03, 45.809, 38.8061, 160.7, 4.2070, 
01:20:44, 99.94, 101.4, 43.509720, 14.920883, 6.84 , +45.7697, +13.8064, 036.7, 7.02, 035.2, 7.918, 1021.98, 44.266, 38.8030, 158.1, 4.1982, 
01:21:44, 100.2, 101.1, 43.511310, 14.922461, 6.16 , +45.7669, +13.8029, 036.2, 7.10, 035.1, 7.964, 1021.98, 46.369, 38.8039, 167.1, 3.5162, 
01:22:44, 99.33, 100.8, 43.512903, 14.924041, 7.26 , +45.7762, +13.8164, 035.0, 7.04, 035.2, 7.900, 1021.94, 44.651, 38.7991, 159.3, 3.1303, 
01:23:44, 99.32, 100.7, 43.514493, 14.925615, 7.10 , +45.7851, +13.8253, 036.1, 7.11, 035.1, 7.923, 1021.94, 45.999, 38.7985, 165.0, 3.1319, 
01:24:44, 99.61, 100.7, 43.516094, 14.927186, 6.30 , +45.8226, +13.8569, 036.7, 7.03, 035.2, 7.900, 1021.97, 45.208, 38.8021, 160.0, 3.3024, 
01:25:44, 99.82, 100.9, 43.517691, 14.928770, 6.74 , +45.8478, +13.8788, 036.1, 7.07, 035.3, 7.890, 1021.90, 44.615, 38.8039, 167.0, 2.9302, 
01:26:44, 100.1, 101.1, 43.519291, 14.930338, 6.74 , +45.8757, +13.9039, 012643.00, E, 035.5, 7.882, 1022.00, 44.850, 38.8049, 172.7, 3.4276, 
01:27:44, 100.1, 101.5, 43.520919, 14.931893, 6.84 , +45.9108, +13.9380, 035.4, 7.20, 035.7, 7.950, 1021.99, 45.674, 38.8037, 172.1, 3.6832, 
01:28:44, 100.5, 101.8, 43.522528, 14.933455, 6.69 , +45.9516, +13.9771, 036.4, 7.11, 036.8, 7.958, 1021.86, 43.621, 38.8029, 147.1, 4.0617, 
01:29:44, 101.1, 102.1, 43.524115, 14.935041, 6.53 , +45.9849, +14.0002, 035.3, 7.16, 036.9, 7.955, 1021.98, 43.398, 38.8026, 154.9, 3.8636, 
01:30:44, 100.8, 102.3, 43.525725, 14.936641, 7.21 , +45.9872, +14.0097, 036.3, 7.14, 036.7, 7.918, 1021.91, 44.094, 38.8036, 135.8, 4.6595, 
01:31:44, 100.8, 102.3, 43.527348, 14.938228, 6.38 , +46.0082, +14.0360, 036.6, 7.11, 037.0, 7.953, 1021.84, 45.355, 38.7969, 156.5, 4.4128, 
01:32:44, 100.7, 102.2, 43.528978, 14.939815, 7.22 , +46.0277, +14.0522, 034.6, 7.30, 037.2, 7.908, 1021.83, 45.304, 38.7961, 163.8, 5.4195, 
01:33:44, 100.8, 102.3, 43.530635, 14.941420, 6.74 , +46.0236, +14.0554, 034.5, 7.43, 037.1, 7.909, 1021.88, 44.847, 38.7919, 164.5, 5.6113, 
01:34:44, 100.7, 102.2, 43.532301, 14.943020, 7.00 , +46.0201, +14.0549, 035.4, 7.23, 037.9, 7.852, 1021.91, 43.790, 38.7891, 163.1, 5.7161, 
01:35:44, 100.6, 102.0, 43.533931, 14.944676, 6.87 , +46.0197, +14.0631, 035.8, 7.36, 038.6, 7.890, 1021.86, 44.753, 38.7806, 157.6, 4.7050, 
01:36:44, 101.7, 102.7, 43.535581, 14.946356, 6.95 , +46.0059, +14.0628, 037.1, 7.40, 037.8, 7.937, 1021.73, 45.232, 38.7675, 144.6, 4.3717, 
01:37:44, 102.6, 104.1, 43.537238, 14.948010, 7.39 , +45.9908, +14.0564, 036.8, 7.45, 038.6, 7.900, 1021.86, 44.142, 38.7598, 151.1, 4.1691, 
01:38:44, 103.2, 104.5, 43.538898, 14.949708, 7.03 , +45.9806, +14.0527, 037.4, 7.48, 038.8, 7.890, 1021.85, 44.865, 38.7510, 154.9, 4.3195, 
01:39:44, 103.4, 104.9, 43.540585, 14.951416, 7.09 , +45.9860, +14.0519, 038.0, 7.62, 038.8, 7.888, 1021.80, 44.229, 38.7564, 152.2, 4.4862, 
01:40:44, 104.6, 105.7, 43.542241, 14.953123, 6.95 , +45.9859, +14.0566, 034.7, 7.50, 037.7, 7.861, 1021.81, 45.199, 38.7568, 158.2, 3.9475, 
01:41:44, 104.5, 105.9, 43.543915, 14.954826, 7.00 , +45.9662, +14.0474, 037.3, 7.58, 038.0, 7.878, 1021.78, 45.521, 38.7482, 151.4, 4.8414, 
01:42:44, 104.6, 106.1, 43.545601, 14.956550, 7.22 , +45.9804, +14.0544, 037.1, 7.60, 038.2, 7.890, 1021.80, 46.360, 38.7520, 157.8, 5.0320, 
01:43:44, 104.6, 106.1, 43.547275, 14.958268, 6.90 , +45.9652, +14.0492, 036.8, 7.53, 038.4, 7.855, 1021.78, 45.090, 38.7476, 160.5, 5.3258, 
01:44:44, 105.3, 106.3, 43.548958, 14.960004, 7.10 , +45.9685, +14.0478, 037.6, 7.60, 038.6, 7.845, 1021.83, 45.144, 38.7474, 163.7, 5.9740, 
01:45:44, 104.7, 106.1, 43.550645, 14.961773, 7.24 , +45.9608, +14.0390, 037.5, 7.58, 038.4, 7.815, 1021.80, 44.901, 38.7478, 168.0, 5.5429, 
01:46:44, 104.5, 105.9, 43.552320, 14.963521, 7.90 , +45.9481, +14.0366, 037.3, 7.58, 037.2, 7.804, 1021.80, 44.226, 38.7538, 167.1, 4.8297, 
01:47:44, 103.7, 105.3, 43.554020, 14.965258, 6.95 , +45.9510, +14.0346, 037.1, 7.67, 037.4, 7.840, 1021.75, 45.157, 38.7424, 166.9, 5.1799, 
01:48:44, 103.3, 104.7, 43.555725, 14.967011, 6.99 , +45.9471, +14.0270, 037.7, 7.67, 037.5, 7.819, 1021.79, 45.024, 38.7481, 168.6, 5.5764, 
01:49:44, 102.7, 104.1, 43.557414, 14.968766, 7.11 , +45.9518, +14.0296, 037.4, 7.61, 037.6, 7.804, 1021.71, 44.786, 38.7499, 169.9, 5.4261, 
01:50:44, 102.3, 103.7, 43.559106, 14.970545, 7.07 , +45.9409, +14.0225, 038.0, 7.61, 037.5, 7.842, 1021.68, 46.137, 38.7493, 170.0, 5.1821, 
01:51:44, 101.9, 104.5, 43.560820, 14.972306, 6.83 , +45.9591, +14.0285, 037.3, 7.66, 036.6, 7.798, 1021.75, 45.178, 38.7465, 163.1, 5.5220, 
01:52:44, 101.9, 103.3, 43.562525, 14.974053, 7.17 , +45.9571, +14.0320, 037.2, 7.68, 036.6, 7.785, 1021.74, 45.695, 38.7525, 165.2, 5.3758, 
01:53:44, 101.9, 103.4, 43.564233, 14.975829, 7.23 , +46.0075, +14.0405, 037.3, 7.72, 036.7, 7.773, 1021.86, 46.423, 38.7687, 170.2, 5.2410, 
01:54:44, 101.8, 103.3, 43.565948, 14.977618, 6.91 , +46.0170, +14.0656, 036.5, 7.69, 036.7, 7.767, 1021.80, 45.921, 38.7769, 162.4, 5.0962, 
01:55:44, 101.9, 103.3, 43.567646, 14.979398, 7.09 , +46.0274, +14.0693, 037.8, 7.66, 036.7, 7.764, 1021.79, 45.924, 38.7814, 154.0, 5.0374, 
01:56:44, 102.8, 103.7, 43.569351, 14.981186, 6.95 , +46.0528, +14.0877, 036.3, 7.81, 036.8, 7.721, 1021.77, 44.976, 38.7866, 155.5, 5.4171, 
01:57:44, 102.9, 104.1, 43.571058, 14.982988, 6.93 , +46.0423, +14.0756, 037.7, 7.71, 036.7, 7.762, 1021.75, 45.821, 38.7886, 155.2, 5.3956, 
01:58:44, 103.2, 104.3, 43.572751, 14.984781, 6.38 , +46.0432, +14.0784, 037.6, 7.69, 036.8, 7.770, 1021.80, 45.906, 38.7912, 156.6, 5.3443, 
01:59:44, 103.1, 104.4, 43.574450, 14.986599, 6.96 , +46.0378, +14.0659, 015943.00, E, 036.8, 7.762, 1021.89, 46.450, 38.7921, 153.6, 4.5386, 
02:00:44, 103.1, 104.5, 43.576163, 14.988408, 7.07 , +46.0245, +14.0573, 037.7, 7.78, 036.1, 7.729, 1021.77, 45.048, 38.7914, 152.3, 4.8613, 
02:01:44, 103.6, 104.6, 43.577871, 14.990183, 7.03 , +46.0090, +14.0414, 037.4, 7.65, 035.7, 7.819, 1021.82, 47.319, 38.7929, 154.2, 5.4039, 
02:02:44, 103.4, 104.7, 43.579591, 14.991961, 7.24 , +45.9987, +14.0261, 036.9, 7.89, 035.6, 7.702, 1021.85, 44.515, 38.7979, 151.6, 5.6009, 
02:03:44, 103.4, 104.8, 43.581328, 14.993735, 6.67 , +45.9620, +14.0107, 036.1, 7.78, 034.3, 7.715, 1021.79, 44.494, 38.7942, 152.7, 5.3694, 
02:04:44, 103.3, 104.7, 43.583065, 14.995481, 7.14 , +45.9268, +13.9714, 036.1, 7.74, 034.2, 7.699, 1021.81, 44.549, 38.8017, 154.0, 4.8099, 
02:05:44, 103.3, 104.7, 43.584811, 14.997241, 7.56 , +45.7427, +13.8226, 036.3, 7.72, 035.3, 7.723, 1021.86, 44.985, 38.7609, 162.1, 5.5686, 
02:06:44, 103.2, 104.6, 43.586550, 14.998998, 7.36 , +45.6780, +13.7744, 035.8, 7, 034.4, 7.672, 1021.85, 44.347, 38.7629, 166.1, 4.9048, 
02:07:44, 103.0, 104.5, 43.588286, 15.000690, 7.39 , +45.6390, +13.7290, 034.5, 7.61, 033.8, 7.721, 1021.88, 46.339, 38.7570, 168.3, 4.7919, 
02:08:44, 103.3, 104.4, 43.590011, 15.002349, 7.55 , +45.6156, +13.7108, 035.0, 7.51, 034.9, 7.712, 1021.87, 45.849, 38.7532, 160.9, 6.0129, 
02:09:44, 103.0, 104.3, 43.591701, 15.004010, 7.10 , +45.6239, +13.7144, 035.4, 7.37, 035.1, 7.758, 1021.88, 46.937, 38.7544, 161.4, 5.5204, 
02:10:44, 103.3, 104.3, 43.593373, 15.005655, 7.16 , +45.6074, +13.7052, 035.4, 7.33, 034.7, 7.652, 1021.84, 44.883, 38.7510, 162.6, 5.4570, 
02:11:44, 102.8, 104.2, 43.595060, 15.007298, 7.60 , +45.6135, +13.7063, 034.9, 7.42, 034.8, 7.672, 1021.85, 47.560, 38.7557, 170.6, 5.6423, 
02:12:44, 102.5, 104.0, 43.596744, 15.008936, 7.06 , +45.6374, +13.7228, 036.0, 7.47, 036.2, 7.690, 1021.78, 46.378, 38.7593, 162.1, 6.0097, 
02:13:44, 102.8, 103.9, 43.598383, 15.010603, 6.91 , +45.6340, +13.7201, 036.8, 7.31, 036.0, 7.651, 1021.67, 45.542, 38.7613, 162.2, 5.0832, 
02:14:44, 102.5, 103.8, 43.600031, 15.012258, 6.90 , +45.6424, +13.7281, 035.4, 7.35, 035.8, 7.666, 1021.74, 46.197, 38.7612, 151.6, 5.2170, 
02:15:44, 102.4, 103.8, 43.601685, 15.013920, 6.92 , +45.6410, +13.7222, 036.4, 7.31, 036.0, 7.628, 1021.78, 45.518, 38.7658, 154.0, 5.4421, 
02:16:44, 102.9, 103.9, 43.603323, 15.015579, 7.21 , +45.6325, +13.7159, 036.0, 7.37, 036.0, 7.616, 1021.83, 45.304, 38.7641, 149.9, 5.2245, 
02:17:44, 102.3, 103.7, 43.604971, 15.017243, 7.04 , +45.6183, +13.7016, 035.5, 7.39, 034.9, 7.678, 1021.76, 45.984, 38.7651, 153.2, 4.9846, 
02:18:44, 102.2, 103.6, 43.606641, 15.018883, 7.20 , +45.5910, +13.6746, 035.1, 7.31, 035.8, 7.618, 1021.76, 44.398, 38.7664, 151.6, 4.7139, 
02:19:44, 102.5, 103.5, 43.608285, 15.020530, 6.79 , +45.5882, +13.6692, 035.2, 7.24, 034.7, 7.639, 1021.70, 46.023, 38.7693, 157.9, 4.2661, 
02:20:44, 101.8, 103.3, 43.609953, 15.022158, 7.46 , +45.5701, +13.6498, 035.7, 7.35, 036.0, 7.618, 1021.67, 45.530, 38.7717, 156.5, 5.6557, 
02:21:44, 101.9, 103.3, 43.611595, 15.023778, 7.15 , +45.5733, +13.6499, 036.1, 7.27, 036.0, 7.574, 1021.66, 44.916, 38.7747, 158.8, 6.7990, 
02:22:44, 101.9, 103.3, 43.613226, 15.025375, 7.03 , +45.5744, +13.6522, 035.1, 7.22, 035.8, 7.606, 1021.66, 47.530, 38.7734, 162.6, 6.2163, 
02:23:44, 101.9, 103.4, 43.614856, 15.026978, 6.96 , +45.5745, +13.6496, 036.3, 7.23, 035.8, 7.663, 1021.67, 47.214, 38.7761, 155.8, 5.7257, 
02:24:44, 101.8, 103.0, 43.616498, 15.028576, 6.83 , +45.5685, +13.6450, 034.6, 7.23, 035.8, 7.624, 1021.53, 46.414, 38.7750, 153.0, 5.6030, 
02:25:44, 101.7, 102.9, 43.618121, 15.030141, 7.17 , +45.5651, +13.6372, 035.0, 7.15, 035.9, 7.583, 1021.66, 46.222, 38.7797, 160.0, 5.1412, 
02:26:44, 101.7, 102.8, 43.619745, 15.031695, 7.20 , +45.5635, +13.6387, 034.4, 7.17, 035.8, 7.544, 1021.60, 44.666, 38.7767, 153.3, 5.1613, 
02:27:44, 101.7, 102.7, 43.621385, 15.033236, 7.46 , +45.5585, +13.6359, 034.1, 7.19, 035.8, 7.553, 1021.65, 44.904, 38.7747, 155.6, 4.9158, 
02:28:44, 101.5, 102.5, 43.623021, 15.034788, 7.03 , +45.5616, +13.6338, 035.0, 7.09, 036.7, 7.518, 1021.63, 44.386, 38.7798, 160.6, 4.7498, 
02:29:44, 101.3, 102.4, 43.624646, 15.036363, 7.18 , +45.5545, +13.6346, 035.3, 7.18, 037.1, 7.541, 1021.56, 46.071, 38.7722, 161.8, 4.7975, 
02:30:44, 100.9, 102.4, 43.626278, 15.037940, 7.43 , +45.5600, +13.6389, 035.6, 7.21, 037.2, 7.561, 1021.51, 46.772, 38.7731, 170.4, 4.8408, 
02:31:44, 100.7, 102.1, 43.627905, 15.039498, 7.50 , +45.5595, +13.6381, 034.4, 7.06, 036.9, 7.562, 1021.60, 46.787, 38.7735, 167.0, 6.1056, 
02:32:44, 100.6, 102.0, 43.629530, 15.041054, 7.32 , +45.5765, +13.6506, 035.7, 7.19, 037.1, 7.574, 1021.63, 46.549, 38.7770, 157.5, 6.0233, 
02:33:44, 100.9, 102.0, 43.631144, 15.042645, 7.23 , +45.5779, +13.6536, 036.4, 7.11, 038.1, 7.521, 1021.62, 45.614, 38.7753, 155.1, 6.0346, 
02:34:44, 100.7, 102.1, 43.632763, 15.044231, 7.47 , +45.5643, +13.6430, 036.1, 6.98, 038.3, 7.533, 1021.57, 46.246, 38.7731, 157.2, 6.4547, 
02:35:44, 101.1, 102.0, 43.634360, 15.045833, 6.81 , +45.5642, +13.6513, 036.3, 7.10, 038.3, 7.487, 1021.59, 44.946, 38.7645, 162.3, 6.3321, 
02:36:44, 100.6, 101.9, 43.635958, 15.047468, 7.59 , +45.5602, +13.6455, 037.0, 7.17, 038.7, 7.515, 1021.51, 45.665, 38.7666, 163.3, 6.0735, 
02:37:44, 100.6, 101.9, 43.637544, 15.049089, 6.89 , +45.5711, +13.6552, 035.1, 7.10, 037.3, 7.484, 1021.59, 44.639, 38.7672, 165.5, 5.8166, 
02:38:44, 100.6, 101.7, 43.639146, 15.050683, 6.83 , +45.5601, +13.6419, 036.0, 7.20, 037.6, 7.559, 1021.65, 46.435, 38.7702, 161.3, 5.1835, 
02:39:44, 100.6, 101.6, 43.640740, 15.052311, 7.06 , +45.5647, +13.6469, 036.2, 7.15, 037.7, 7.526, 1021.65, 45.653, 38.7695, 151.1, 4.8885, 
02:40:44, 100.0, 101.4, 43.642338, 15.053900, 7.21 , +45.6007, +13.6726, 035.3, 7.07, 037.7, 7.497, 1021.69, 44.684, 38.7777, 150.0, 4.2622, 
02:41:44, 100.0, 101.4, 43.643933, 15.055496, 7.18 , +45.6282, +13.6924, 035.6, 7.14, 038.2, 7.518, 1021.68, 44.792, 38.7839, 153.7, 4.3550, 
02:42:44, 99.77, 101.1, 43.645536, 15.057081, 7.58 , +45.6623, +13.7285, 034.0, 7.10, 038.5, 7.493, 1021.58, 44.145, 38.7797, 158.2, 4.3324, 
02:43:44, 99.60, 101.0, 43.647135, 15.058625, 7.25 , +45.6795, +13.7814, 035.9, 6.94, 039.3, 7.478, 1021.66, 43.916, 38.7424, 173.9, 3.8414, 
02:44:44, 99.49, 100.9, 43.648721, 15.060171, 7.15 , +45.7059, +13.8246, 035.1, 6.92, 039.0, 7.547, 1021.62, 46.528, 38.7238, 161.8, 3.9832, 
02:45:44, 99.84, 100.9, 43.650305, 15.061681, 6.87 , +45.7598, +13.9008, 034.6, 6.83, 039.2, 7.529, 1021.62, 45.545, 38.6979, 149.0, 4.4708, 
02:46:44, 99.87, 100.9, 43.651863, 15.063190, 6.73 , +45.8102, +13.9495, 035.6, 6.85, 040.5, 7.464, 1021.69, 44.684, 38.6966, 148.9, 4.4107, 